Weather History for Tyler, TX

Change the Weather History Date:

Thursday, January 17, 2013

  Actual Average Record
Temperature  
Mean Temperature 44 °F 46 °F  
Max Temperature 61 °F 56 °F 79 °F (1952)
Min Temperature 26 °F 37 °F 11 °F (1957)
Degree Days  
Heating Degree Days 21 19  
Month to date heating degree days 338 323  
Since 1 July heating degree days 1074 1224  
Cooling Degree Days 0 0  
Month to date cooling degree days 0 0  
Year to date cooling degree days 0 0  
Moisture  
Dew Point 29 °F    
Average Humidity 59    
Maximum Humidity 85    
Minimum Humidity 32    
Precipitation  
Precipitation 0.00 in 0.09 in 1.39 in (1990)
Month to date precipitation 3.15 1.68  
Year to date precipitation 3.15 1.68  
Snow  
Snow 0.00 in - - ()
Month to date snowfall T  
Since 1 July snowfall 1.0  
Snow Depth 0.00 in    
Sea Level Pressure  
Sea Level Pressure 30.39 in    
Wind  
Wind Speed 5 mph (NNW)    
Max Wind Speed 16 mph    
Max Gust Speed 22 mph    
Visibility 10 miles    
Events      
T = Trace of Precipitation, MM = Missing Value Source: NWS Daily Summary

Daily Weather History Graph

Daily Weather History Graph

Search for Another Location

Airport:

Trip Planner

Search our weather history database for the weather conditions in past years. The results will help you decide how hot, cold, wet, or windy it might be!

Date:

Astronomy

Jan. 17, 2013 Rise Set
Actual Time 7:22 AM CST 5:41 PM CST
Civil Twilight 6:56 AM CST 6:07 PM CST
Nautical Twilight 6:26 AM CST 6:37 PM CST
Astronomical Twilight 5:56 AM CST 7:07 PM CST
Moon 10:55 AM CST (1/17) No Moon Set
Length of Visible Light 11h 11m
Length of Day
10h 18m
Waxing Crescent, 38% of the Moon is Illuminated
Jan 17
Waxing Crescent
Jan 18
First Quarter
Jan 26
Full
Feb 3
Last Quarter
Feb 10
New

Hourly Weather History & Observations

Time (CST) Temp. Windchill Dew Point Humidity Pressure Visibility Wind Dir Wind Speed Gust Speed Precip Events Conditions
12:53 AM 30.9 °F 27.5 °F 24.1 °F 76% 30.27 in 10.0 mi West 3.5 mph - N/A   Clear
1:53 AM 27.0 °F - 23.0 °F 85% 30.28 in 10.0 mi Calm Calm - N/A   Clear
2:53 AM 28.9 °F 25.2 °F 23.0 °F 78% 30.29 in 10.0 mi West 3.5 mph - N/A   Clear
3:53 AM 33.1 °F 26.9 °F 24.1 °F 70% 30.29 in 10.0 mi West 6.9 mph - N/A   Clear
6:53 AM 27.0 °F - 23.0 °F 85% 30.33 in 10.0 mi Calm Calm - N/A   Clear
7:53 AM 30.9 °F 26.2 °F 24.1 °F 76% 30.35 in 10.0 mi NW 4.6 mph - N/A   Clear
8:53 AM 39.0 °F 36.8 °F 26.1 °F 60% 30.38 in 10.0 mi North 3.5 mph - N/A   Clear
9:53 AM 46.9 °F - 28.9 °F 50% 30.41 in 10.0 mi NNW 5.8 mph - N/A   Clear
10:53 AM 52.0 °F - 30.9 °F 45% 30.42 in 10.0 mi North 11.5 mph - N/A   Clear
11:53 AM 55.9 °F - 32.0 °F 40% 30.40 in 10.0 mi NNW 5.8 mph - N/A   Clear
12:53 PM 57.0 °F - 32.0 °F 39% 30.38 in 10.0 mi NNW 5.8 mph - N/A   Clear
1:53 PM 60.1 °F - 30.9 °F 33% 30.37 in 10.0 mi North 9.2 mph - N/A   Clear
2:53 PM 60.1 °F - 30.0 °F 32% 30.37 in 10.0 mi NNW 15.0 mph - N/A   Clear
3:53 PM 60.1 °F - 30.0 °F 32% 30.38 in 10.0 mi North 12.7 mph - N/A   Clear
4:53 PM 57.9 °F - 30.9 °F 36% 30.40 in 10.0 mi NNW 9.2 mph - N/A   Clear
5:53 PM 54.0 °F - 30.9 °F 41% 30.43 in 10.0 mi NNW 5.8 mph - N/A   Clear
6:53 PM 50.0 °F - 30.9 °F 48% 30.45 in 10.0 mi NNW 3.5 mph - N/A   Clear
7:53 PM 48.0 °F - 30.9 °F 52% 30.46 in 10.0 mi NNW 3.5 mph - N/A   Clear
8:53 PM 46.0 °F 43.9 °F 30.9 °F 56% 30.47 in 10.0 mi North 4.6 mph - N/A   Clear
9:53 PM 45.0 °F 42.6 °F 32.0 °F 60% 30.48 in 10.0 mi North 4.6 mph - N/A   Clear
10:53 PM 42.1 °F 40.2 °F 32.0 °F 67% 30.49 in 10.0 mi NNW 3.5 mph - N/A   Clear
11:53 PM 39.9 °F 37.8 °F 30.9 °F 70% 30.51 in 10.0 mi NNW 3.5 mph - N/A   Clear